Location: Clairmont
(55.2667°N, 118.8000°W)
Time: 09:49:35
(UTC+00:00)

N. Korean satellite - Visible Passes

Search period start: 27 October 2020 00:00
Search period end: 06 November 2020 00:00
Orbit: 452 x 505 km, 97.2° (Epoch: 26 October)

Date Brightness Start Highest point End Pass type
(mag) Time Alt. Az. Time Alt. Az. Time Alt. Az.
27 Oct 10.5 01:59:52 10° W 02:00:37 10° W 02:01:22 10° WNW visible
27 Oct 7.9 13:15:23 10° NNE 13:18:40 40° E 13:21:54 10° S visible
28 Oct 9.8 01:31:40 10° SW 01:34:13 18° W 01:36:45 10° NW visible
28 Oct 9.2 12:49:36 10° NE 12:52:22 22° E 12:55:06 10° SSE visible
29 Oct 8.7 01:04:40 10° SSW 01:07:53 32° W 01:11:05 10° NNW visible
29 Oct 10.0 12:24:24 10° ENE 12:25:59 13° E 12:27:33 10° ESE visible
29 Oct 6.4 13:56:22 10° N 13:59:47 70° WNW 14:03:11 10° SSW visible
30 Oct 7.1 13:30:13 10° NNE 13:33:38 60° ESE 13:37:01 10° S visible
31 Oct 10.0 01:47:32 10° WSW 01:49:17 13° W 01:51:02 10° WNW visible
31 Oct 8.5 13:04:16 10° NNE 13:07:22 31° E 13:10:27 10° SSE visible
01 Nov 9.4 01:20:02 10° SSW 01:22:54 23° W 01:25:44 10° NW visible
01 Nov 9.6 12:38:38 10° NE 12:41:01 18° E 12:43:24 10° SE visible
01 Nov 6.7 14:11:19 10° N 14:14:38 47° WNW 14:17:57 10° SW visible
02 Nov 8.1 00:53:14 10° S 00:56:35 41° W 00:59:55 10° NNW visible
02 Nov 6.4 13:45:04 10° NNE 13:48:31 88° ESE 13:51:57 10° SSW visible
03 Nov 7.7 13:18:59 10° NNE 13:22:18 45° E 13:25:36 10° S visible
04 Nov 9.8 01:35:34 10° SW 01:37:53 17° W 01:40:10 10° NW visible
04 Nov 9.0 12:53:07 10° NE 12:56:00 24° E 12:58:51 10° SSE visible
04 Nov 7.1 14:26:18 10° N 14:29:26 34° WNW 14:32:33 10° SW visible
05 Nov 8.8 01:08:25 10° SSW 01:11:30 29° W 01:14:34 10° NNW visible
05 Nov 9.9 12:27:43 10° NE 12:29:35 14° E 12:31:27 10° ESE visible
05 Nov 6.4 13:59:55 10° N 14:03:20 63° WNW 14:06:44 10° SSW visible
